When you browse on this site, cookies collect data to enhance your experience and personalize the content and advertising you see.
Visit our Privacy Policy to learn more. By continuing to use the site, you agree to this use of cookies and data.
  • En España
  • Lista de países
  • Para 7 días
  • Temperatura del agua
  • Mapa Satelital
  • El tiempo en el mapa
  • Informadores
  • user-avatar
    Iniciar sesión

    Tiempo cada hora Ibb

    Hoy, 19 Junio, Miércoles

    Tiempo Temperatura Precipitaciones Viento Presión Humedad
    00:00 +24°C° 0 mm 1 mps 595 mmHg 51%
    01:00 +23°C° 0 mm 1 mps 594 mmHg 51%
    02:00 +23°C° 0 mm 1 mps 594 mmHg 52%
    03:00 +22°C° 0 mm 1 mps 594 mmHg 52%
    04:00 +22°C° 0 mm 1 mps 594 mmHg 52%
    05:00 +22°C° 0 mm 1 mps 594 mmHg 52%
    06:00 +22°C° 0 mm 1 mps 594 mmHg 53%
    07:00 +23°C° 0 mm 1 mps 595 mmHg 48%
    08:00 +25°C° 0 mm 1 mps 596 mmHg 42%
    09:00 +27°C° 0 mm 2 mps 597 mmHg 37%
    10:00 +27°C° 0 mm 2 mps 597 mmHg 37%
    11:00 +28°C° 0 mm 2 mps 597 mmHg 36%
    12:00 +29°C° 0 mm 3 mps 597 mmHg 36%
    13:00 +28°C° 0.2 mm 3 mps 596 mmHg 39%
    14:00 +28°C° 0.2 mm 3 mps 596 mmHg 42%
    15:00 +28°C° 0.2 mm 3 mps 595 mmHg 45%
    16:00 +26°C° 1.4 mm 4 mps 594 mmHg 52%
    17:00 +23°C° 1.4 mm 4 mps 594 mmHg 59%
    18:00 +21°C° 1.4 mm 5 mps 593 mmHg 65%
    19:00 +21°C° 0.9 mm 4 mps 593 mmHg 62%
    20:00 +21°C° 0.9 mm 4 mps 594 mmHg 59%
    21:00 +20°C° 0.9 mm 3 mps 594 mmHg 56%
    22:00 +21°C° 0 mm 3 mps 594 mmHg 53%
    23:00 +23°C° 0 mm 2 mps 594 mmHg 50%

    Mañana, 20 Junio, Jueves

    Tiempo Temperatura Precipitaciones Viento Presión Humedad
    00:00 +24°C° 0 mm 2 mps 594 mmHg 48%
    01:00 +24°C° 0 mm 1 mps 594 mmHg 47%
    02:00 +23°C° 0 mm 1 mps 594 mmHg 47%
    03:00 +23°C° 0 mm 1 mps 594 mmHg 47%
    04:00 +23°C° 0 mm 1 mps 594 mmHg 47%
    05:00 +23°C° 0 mm 1 mps 594 mmHg 46%
    06:00 +23°C° 0 mm 1 mps 594 mmHg 46%
    07:00 +24°C° 0 mm 1 mps 595 mmHg 41%
    08:00 +26°C° 0 mm 1 mps 596 mmHg 36%
    09:00 +27°C° 0 mm 1 mps 597 mmHg 31%
    10:00 +28°C° 0 mm 2 mps 597 mmHg 31%
    11:00 +28°C° 0 mm 2 mps 597 mmHg 31%
    12:00 +29°C° 0 mm 3 mps 597 mmHg 31%
    13:00 +29°C° 0 mm 3 mps 596 mmHg 33%
    14:00 +28°C° 0 mm 3 mps 595 mmHg 34%
    15:00 +28°C° 0 mm 3 mps 595 mmHg 35%
    16:00 +27°C° 0.3 mm 3 mps 594 mmHg 41%
    17:00 +25°C° 0.3 mm 3 mps 594 mmHg 47%
    18:00 +24°C° 0.3 mm 3 mps 594 mmHg 53%
    19:00 +24°C° 0 mm 3 mps 594 mmHg 54%
    20:00 +24°C° 0 mm 2 mps 594 mmHg 55%
    21:00 +24°C° 0 mm 1 mps 595 mmHg 56%
    22:00 +24°C° 0 mm 1 mps 595 mmHg 55%
    23:00 +23°C° 0 mm 1 mps 594 mmHg 54%

    Pasado mañana, 21 Junio, Viernes

    Tiempo Temperatura Precipitaciones Viento Presión Humedad
    00:00 +23°C° 0 mm 1 mps 594 mmHg 53%
    01:00 +23°C° 0 mm 1 mps 594 mmHg 51%
    02:00 +23°C° 0 mm 1 mps 593 mmHg 49%
    03:00 +23°C° 0 mm 1 mps 593 mmHg 47%
    04:00 +23°C° 0 mm 1 mps 593 mmHg 48%
    05:00 +23°C° 0 mm 1 mps 594 mmHg 48%
    06:00 +20°C° 0 mm 0 mps 594 mmHg 49%
    07:00 +24°C° 0 mm 1 mps 595 mmHg 42%
    08:00 +26°C° 0 mm 1 mps 596 mmHg 35%
    09:00 +28°C° 0 mm 1 mps 597 mmHg 28%
    10:00 +28°C° 0 mm 2 mps 597 mmHg 29%
    11:00 +28°C° 0 mm 2 mps 597 mmHg 30%
    12:00 +29°C° 0 mm 3 mps 596 mmHg 31%
    13:00 +28°C° 0.1 mm 3 mps 596 mmHg 32%
    14:00 +28°C° 0.1 mm 3 mps 595 mmHg 33%
    15:00 +28°C° 0.1 mm 3 mps 595 mmHg 34%
    16:00 +27°C° 0.2 mm 2 mps 595 mmHg 39%
    17:00 +26°C° 0.2 mm 2 mps 594 mmHg 44%
    18:00 +24°C° 0.2 mm 1 mps 594 mmHg 49%
    19:00 +24°C° 0 mm 2 mps 594 mmHg 50%
    20:00 +24°C° 0 mm 2 mps 594 mmHg 50%
    21:00 +24°C° 0 mm 2 mps 595 mmHg 50%
    22:00 +24°C° 0 mm 1 mps 594 mmHg 51%
    23:00 +24°C° 0 mm 1 mps 594 mmHg 51%

    22 Junio, Sábado

    Tiempo Temperatura Precipitaciones Viento Presión Humedad
    00:00 +24°C° 0 mm 1 mps 594 mmHg 51%
    01:00 +23°C° 0 mm 1 mps 593 mmHg 50%
    02:00 +23°C° 0 mm 1 mps 593 mmHg 49%
    03:00 +23°C° 0 mm 1 mps 593 mmHg 48%
    04:00 +23°C° 0 mm 1 mps 593 mmHg 49%
    05:00 +22°C° 0 mm 1 mps 593 mmHg 51%
    06:00 +22°C° 0 mm 1 mps 594 mmHg 53%
    07:00 +24°C° 0 mm 1 mps 595 mmHg 44%
    08:00 +26°C° 0 mm 2 mps 596 mmHg 36%
    09:00 +28°C° 0 mm 2 mps 597 mmHg 28%
    10:00 +28°C° 0 mm 3 mps 597 mmHg 27%
    11:00 +29°C° 0 mm 3 mps 597 mmHg 26%
    12:00 +30°C° 0 mm 4 mps 597 mmHg 25%
    13:00 +29°C° 0.2 mm 4 mps 596 mmHg 30%
    14:00 +29°C° 0.2 mm 4 mps 595 mmHg 35%
    15:00 +28°C° 0.2 mm 4 mps 595 mmHg 41%
    16:00 +27°C° 0.4 mm 3 mps 595 mmHg 44%
    17:00 +26°C° 0.4 mm 3 mps 594 mmHg 48%
    18:00 +26°C° 0.4 mm 2 mps 594 mmHg 51%
    19:00 +25°C° 0.1 mm 2 mps 594 mmHg 55%
    20:00 +25°C° 0.1 mm 1 mps 594 mmHg 58%
    21:00 +24°C° 0.1 mm 1 mps 595 mmHg 62%
    22:00 +24°C° 0 mm 1 mps 594 mmHg 61%
    23:00 +24°C° 0 mm 1 mps 594 mmHg 61%

    23 Junio, Domingo

    Tiempo Temperatura Precipitaciones Viento Presión Humedad
    00:00 +21°C° 0 mm 0 mps 594 mmHg 61%
    01:00 +23°C° 0 mm 1 mps 593 mmHg 56%
    02:00 +23°C° 0 mm 1 mps 593 mmHg 50%
    03:00 +22°C° 0 mm 1 mps 593 mmHg 45%
    04:00 +22°C° 0 mm 1 mps 593 mmHg 45%
    05:00 +21°C° 0 mm 1 mps 593 mmHg 46%
    06:00 +21°C° 0 mm 1 mps 593 mmHg 46%
    07:00 +23°C° 0 mm 2 mps 594 mmHg 39%
    08:00 +25°C° 0 mm 2 mps 595 mmHg 33%
    09:00 +26°C° 0 mm 3 mps 596 mmHg 27%
    10:00 +27°C° 0 mm 4 mps 596 mmHg 25%
    11:00 +28°C° 0 mm 4 mps 596 mmHg 23%
    12:00 +29°C° 0 mm 4 mps 596 mmHg 21%
    13:00 +29°C° 0.1 mm 4 mps 596 mmHg 26%
    14:00 +28°C° 0.1 mm 4 mps 595 mmHg 30%
    15:00 +28°C° 0.1 mm 4 mps 595 mmHg 35%
    16:00 +27°C° 0.4 mm 3 mps 594 mmHg 42%
    17:00 +26°C° 0.4 mm 3 mps 594 mmHg 49%
    18:00 +25°C° 0.4 mm 3 mps 594 mmHg 55%
    19:00 +24°C° 0.4 mm 2 mps 594 mmHg 57%
    20:00 +24°C° 0.4 mm 1 mps 594 mmHg 59%
    21:00 +21°C° 0.4 mm 0 mps 595 mmHg 61%
    22:00 +21°C° 0 mm 0 mps 594 mmHg 62%
    23:00 +21°C° 0 mm 0 mps 594 mmHg 64%

    24 Junio, Lunes

    Tiempo Temperatura Precipitaciones Viento Presión Humedad
    00:00 +21°C° 0 mm 0 mps 594 mmHg 65%
    01:00 +20°C° 0 mm 0 mps 593 mmHg 65%
    02:00 +20°C° 0 mm 0 mps 593 mmHg 65%
    03:00 +20°C° 0 mm 0 mps 593 mmHg 65%
    04:00 +19°C° 0 mm 0 mps 593 mmHg 65%
    05:00 +21°C° 0 mm 1 mps 593 mmHg 65%
    06:00 +21°C° 0 mm 1 mps 593 mmHg 65%
    07:00 +22°C° 0 mm 1 mps 594 mmHg 56%
    08:00 +24°C° 0 mm 1 mps 595 mmHg 48%
    09:00 +25°C° 0 mm 1 mps 596 mmHg 39%
    10:00 +26°C° 0 mm 2 mps 596 mmHg 35%
    11:00 +27°C° 0 mm 2 mps 596 mmHg 31%
    12:00 +28°C° 0 mm 3 mps 596 mmHg 28%
    13:00 +28°C° 0.2 mm 3 mps 596 mmHg 34%
    14:00 +27°C° 0.2 mm 4 mps 595 mmHg 40%
    15:00 +26°C° 0.2 mm 4 mps 594 mmHg 46%
    16:00 +26°C° 0.3 mm 3 mps 594 mmHg 47%
    17:00 +25°C° 0.3 mm 3 mps 594 mmHg 48%
    18:00 +25°C° 0.3 mm 2 mps 594 mmHg 49%
    19:00 +24°C° 0.2 mm 1 mps 594 mmHg 51%
    20:00 +24°C° 0.2 mm 1 mps 594 mmHg 53%
    21:00 +22°C° 0.2 mm 0 mps 595 mmHg 56%
    22:00 +21°C° 0 mm 0 mps 594 mmHg 57%
    23:00 +21°C° 0 mm 0 mps 594 mmHg 58%
    Mostrar más